Regional Weather Roundup
Issued by NWS

Home | Current Version | Previous Version | Text Only | Print | Product List | Glossary On
Versions: 1 2 3 4 5 6 7 8 9 10 11 12 13 14 15 16 17 18 19 20 21 22 23 24 25 26 27 28 29 30 31 32 33 34 35 36 37 38 39 40 41 42 43 44 45 46 47 48 49 50
244
ASUS43 KLMK 220202
RWRKY
KENTUCKY REGIONAL WEATHER ROUNDUP
NATIONAL WEATHER SERVICE LOUISVILLE KY
1000 PM EDT SAT OCT 21 2017

NOTE "FAIR" INDICATES FEW OR NO CLOUDS BELOW 12,000 FEET
WITH NO SIGNIFICANT WEATHER AND/OR OBSTRUCTIONS TO VISIBILITY.

KYZ001>023-026-027-061>063-070>075-220300-
WESTERN AND SOUTH CENTRAL KENTUCKY

CITY           SKY/WX    TMP DP  RH WIND       PRES   REMARKS
PADUCAH        CLEAR     71  59  65 SE9       30.08R
HENDERSON      CLEAR     69  56  62 SE7       30.12S
OWENSBORO      CLEAR     66  55  67 SE9       30.14F
HOPKINSVILLE   CLEAR     70  57  64 VRB2      30.15F
BOWLING GREEN  CLEAR     62  54  74 SE3       30.19R
GLASGOW        NOT AVBL
$$

KYZ024-025-028>034-038-045-046-053-220300-
NORTH CENTRAL KENTUCKY

CITY           SKY/WX    TMP DP  RH WIND       PRES   REMARKS
LOUISVILLE/SDF PTCLDY    62  51  67 SE6       30.18S
LOUISVILLE/LOU PTCLDY    64  52  64 SE5       30.19F
FORT KNOX      CLEAR     58  51  76 E6        30.17S
$$

KYZ035>037-039>044-047>052-055>060-089>105-220300-
NORTHEAST KENTUCKY

CITY           SKY/WX    TMP DP  RH WIND       PRES   REMARKS
LEXINGTON      PTCLDY    65  48  54 SE6       30.23S
COVINGTON      MOCLDY    63  48  58 S6        30.21S
FRANKFORT      PTCLDY    56  48  74 CALM      30.21S
$$

KYZ054-064>069-076>088-106>120-220300-
SOUTHEAST KENTUCKY

CITY           SKY/WX    TMP DP  RH WIND       PRES   REMARKS
JACKSON        CLEAR     64  51  62 E3        30.25F
LONDON         CLEAR     54  50  86 CALM      30.25R
SOMERSET       NOT AVBL
MIDDLESBORO    CLEAR     53  52  97 CALM      30.28R
MONTICELLO     PTCLDY    56  48  74 CALM      30.25R
$$





USA.gov is the U.S. government's official web portal to all federal, state and local government web resources and services.